This demonstration page uses our WeatherBlox Daily Observations layout. Learn more.

Left ArrowRight Arrow

Hourly Observations for May 6, 2015

Temp ( °F °C ) Dew Point ( °F °C ) Humidity (%) Winds ( mph kmh ) Pressure ( in mb ) Visibility ( mi km ) Precip ( " mm )
12:52 am 00:52 Cloudy 67 19.4 58 14.4 73 73 SSE 15 24 29.96 1014 10 16 0.00 0.00
1:52 am 01:52 Cloudy with Light Rain 67 19.4 59 15 76 76 SSE 15 24 29.95 1014 10 16 0.00 0.03
2:52 am 02:52 Cloudy with Light Rain 65 18.3 62 16.7 90 90 SSE 20 31 29.92 1013 10 16 0.01 0.25
3:52 am 03:52 Cloudy 64 17.8 61 16.1 90 90 SE 12 19 29.89 1012 10 16 0.00 0.03
4:52 am 04:52 Cloudy 63 17.2 60 15.6 90 90 SE 9 15 29.88 1012 10 16 0.00 0.00
5:52 am 05:52 Cloudy 64 17.8 60 15.6 87 87 SSE 14 22 29.87 1012 10 16 0.00 0.00
6:52 am 06:52 Cloudy with Light Rain 64 17.8 60 15.6 87 87 SE 14 22 29.87 1011 10 16 0.01 0.25
7:52 am 07:52 Cloudy 63 17.2 60 15.6 90 90 SE 18 30 29.85 1011 10 16 0.06 1.52
8:52 am 08:52 Mostly Cloudy 67 19.4 61 16.1 81 81 SSE 22 35 29.82 1010 10 16 0.00 0.00
9:26 am 09:26 Cloudy 66 19 61 16 83 83 SSE 21 33 29.83 1010 10 16 0.00 0.00
9:52 am 09:52 Cloudy 66 18.9 59 15 78 78 SSE 22 35 29.83 1010 10 16 0.00 0.00
10:19 am 10:19 Cloudy 67 19.4 60 15.6 79 79 SSE 20 31 29.83 1010 10 16 0.00 0.00
10:52 am 10:52 Cloudy 68 20 60 15.6 76 76 SSE 24 39 29.83 1010 10 16 0.00 0.00
11:52 am 11:52 Mostly Cloudy 70 21.1 60 15.6 71 71 S 21 33 29.83 1010 10 16 0.00 0.00
12:23 pm 12:23 Mostly Cloudy 72 22.2 60 15.6 66 66 S 24 39 29.80 1009 10 16 0.00 0.00
12:52 pm 12:52 Mostly Cloudy 71 21.7 60 15.6 68 68 SSE 25 41 29.83 1010 10 16 0.00 0.00
1:52 pm 13:52 Cloudy with Light Rain 68 20 62 16.7 81 81 S 15 24 29.81 1010 4 6 0.13 3.30
2:03 pm 14:03 Cloudy with Thunderstorms 70 21 63 17 78 78 SSE 22 35 29.80 1009 10 16 0.00 0.00
2:08 pm 14:08 Windy with Storms Likely 68 20 63 17 83 83 SSE 25 41 29.80 1009 2 2 0.00 0.00
2:21 pm 14:21 Windy with Storms Likely 68 20 62 16.7 81 81 S 20 31 29.80 1009 7 11 0.06 1.52
2:31 pm 14:31 Cloudy 69 20.6 62 16.7 78 78 S 25 41 29.80 1009 10 16 0.06 1.52
2:52 pm 14:52 Cloudy 70 21.1 61 16.1 73 73 SSE 24 39 29.81 1009 10 16 0.06 1.52
3:52 pm 15:52 Cloudy 71 21.7 59 15 66 66 S 18 30 29.78 1009 10 16 0.00 0.00
4:52 pm 16:52 Cloudy 71 21.7 61 16.1 71 71 SSE 21 33 29.76 1008 10 16 0.00 0.00
5:52 pm 17:52 Mostly Cloudy 71 21.7 62 16.7 73 73 SSE 21 33 29.75 1008 10 16 0.00 0.00
6:52 pm 18:52 Cloudy 71 21.7 61 16.1 71 71 SSE 20 31 29.74 1007 10 16 0.00 0.00
7:52 pm 19:52 Cloudy 70 21.1 59 15 68 68 SE 18 30 29.74 1007 10 16 0.00 0.00
8:52 pm 20:52 Cloudy with Thunderstorms 69 20.6 59 15 70 70 SSE 21 33 29.74 1007 10 16 0.00 0.00
9:20 pm 21:20 Cloudy with Light Rain 68 20 59 15 73 73 SE 23 37 29.71 1006 10 16 0.00 0.00
9:38 pm 21:38 Windy with Storms Likely 68 20 59 15 73 73 SSE 20 31 29.71 1006 10 16 0.00 0.03
9:52 pm 21:52 Windy with Storms Likely 67 19.4 60 15.6 79 79 SSE 21 33 29.73 1007 10 16 0.00 0.03
10:52 pm 22:52 Cloudy with Thunderstorms 65 18.3 60 15.6 84 84 WSW 6 9 29.74 1007 10 16 0.04 1.02
11:52 pm 23:52 Cloudy with Thunderstorms 65 18.3 62 16.7 90 90 S 6 9 29.74 1007 3 5 0.22 5.59

Powered by AerisWeather